Date String (YYYY-MM-DD hh:mm:ss) UTC,Instrument flags,absolute air pressure of the measurement (hPa),sample flow rate (lpm),inlet stack bypass flow (lpm),air temperature of the measurement (°C),ambient temperature measured by the external sensor (°C),aerosol sample conditioner tube jacket temperature (°C),OPC LED temperature (°C),internal box temperature (°C),relative humidity of the measurement (%),span deviation,mass concentration of particles derived from Lorenz-Mie calculation of OPC scattering (μg/m³),mass concentration of particles derived from Lorenz-Mie calculation of OPC scattering (μg/m³),mass concentration of particles derived from Lorenz-Mie calculation of OPC scattering (μg/m³)
DateTimeUTC,F1_M11,P_M11,Q1_M11,Q2_M11,T1_M11,T2_M11,T3_M11,T4_M11,T5_M11,U1_M11,ZSPAN_M11,X2_M11,X0_M11,X1_M11
2023-08-01 16:00:00,SystemResetWarning,0835.6,5.01,000.00,032.0,025.7,000.0,039.4,031.5,32.3,0000.0,0004.49,0008.46,0003.93
2023-08-01 16:01:00,SystemResetWarning,0835.7,5.01,000.00,031.9,025.9,000.0,039.5,031.3,32.6,0000.0,0004.43,0008.43,0003.90
2023-08-01 16:02:00,SystemResetWarning,0835.7,5.00,000.00,031.7,026.3,000.0,039.5,031.3,32.7,0000.0,0004.38,0008.30,0003.90
2023-08-01 16:03:00,SystemResetWarning,0835.8,5.00,000.00,031.7,026.7,000.0,039.6,031.4,34.0,0000.0,0004.37,0008.26,0003.91
2023-08-01 16:04:00,SystemResetWarning,0835.7,5.00,000.00,031.6,027.1,000.0,039.6,031.5,34.0,0000.0,0004.36,0008.18,0003.90
2023-08-01 16:05:00,SystemResetWarning,0835.8,5.00,000.00,031.6,027.4,000.0,039.6,031.6,33.4,0000.0,0004.36,0008.20,0003.90
2023-08-01 16:06:00,SystemResetWarning,0835.8,5.00,000.00,031.5,027.7,000.0,039.6,031.6,33.0,0000.0,0004.37,0008.21,0003.91
2023-08-01 16:07:00,SystemResetWarning,0835.8,5.00,000.00,031.5,027.9,000.0,039.6,031.7,33.1,0000.0,0004.34,0008.10,0003.92
2023-08-01 16:08:00,SystemResetWarning,0835.7,5.00,000.00,031.5,028.1,000.0,039.6,031.7,33.6,0000.0,0004.34,0008.00,0003.93
2023-08-01 16:09:00,SystemResetWarning,0835.6,4.98,000.00,031.5,027.6,000.0,039.5,031.8,36.2,0000.0,0004.37,0007.84,0003.93
2023-08-01 16:10:00,SystemResetWarning,0835.6,5.02,000.00,031.7,026.3,000.0,039.4,031.6,36.4,0000.0,0004.40,0007.90,0003.92
2023-08-01 16:11:00,SystemResetWarning,0835.6,5.01,000.00,031.9,025.8,000.0,039.3,031.7,35.5,0000.0,0004.40,0007.62,0003.92
2023-08-01 16:12:00,SystemResetWarning,0835.6,4.97,000.00,032.1,026.0,000.0,039.3,031.6,35.3,0000.0,0004.41,0007.23,0003.93
2023-08-01 16:13:00,SystemResetWarning,0835.7,5.01,000.00,032.3,026.3,000.0,039.4,031.6,33.8,0000.0,0004.41,0007.27,0003.94
2023-08-01 16:14:00,SystemResetWarning,0835.7,4.99,000.00,032.4,026.7,000.0,039.5,031.7,33.3,0000.0,0004.40,0007.29,0003.92
2023-08-01 16:15:00,SystemResetWarning,0835.7,5.02,000.00,032.5,027.1,000.0,039.6,031.8,32.8,0000.0,0004.38,0007.25,0003.89
2023-08-01 16:16:00,SystemResetWarning,0835.7,5.01,000.00,032.5,027.4,000.0,039.7,031.8,32.2,0000.0,0004.39,0007.29,0003.87
2023-08-01 16:17:00,SystemResetWarning,0835.7,4.99,000.00,032.5,027.7,000.0,039.8,031.8,32.5,0000.0,0004.38,0007.29,0003.87
2023-08-01 16:18:00,SystemResetWarning,0835.8,5.00,000.00,032.5,027.9,000.0,039.9,031.9,32.5,0000.0,0004.40,0007.44,0003.88
2023-08-01 16:19:00,SystemResetWarning,0835.7,5.00,000.00,032.5,028.1,000.0,039.9,032.0,32.7,0000.0,0004.37,0007.61,0003.87
2023-08-01 16:20:00,SystemResetWarning,0835.7,4.99,000.00,032.5,027.0,000.0,039.8,031.9,32.4,0000.0,0004.34,0007.90,0003.85
2023-08-01 16:21:00,SystemResetWarning,0835.6,5.00,000.00,032.5,025.8,000.0,039.8,031.6,32.4,0000.0,0004.34,0007.91,0003.84
2023-08-01 16:22:00,SystemResetWarning,0835.6,5.01,000.00,032.4,025.5,000.0,039.7,031.4,32.9,0000.0,0004.37,0008.02,0003.84
2023-08-01 16:23:00,SystemResetWarning,0835.6,5.01,000.00,032.2,025.8,000.0,039.8,031.3,33.7,0000.0,0004.40,0008.12,0003.84
2023-08-01 16:24:00,SystemResetWarning,0835.6,5.00,000.00,032.0,026.2,000.0,039.8,031.3,33.6,0000.0,0004.42,0008.33,0003.84
2023-08-01 16:25:00,SystemResetWarning,0835.6,4.99,000.00,031.9,026.6,000.0,039.9,031.4,33.8,0000.0,0004.42,0009.14,0003.84
2023-08-01 16:26:00,SystemResetWarning,0835.6,5.00,000.00,031.9,027.0,000.0,039.9,031.5,33.9,0000.0,0004.45,0009.19,0003.84
2023-08-01 16:27:00,SystemResetWarning,0835.6,5.00,000.00,031.8,027.4,000.0,039.9,031.6,34.4,0000.0,0004.45,0009.17,0003.85
2023-08-01 16:28:00,SystemResetWarning,0835.6,4.98,000.00,031.8,027.6,000.0,039.9,031.7,34.7,0000.0,0004.46,0009.18,0003.86
2023-08-01 16:29:00,SystemResetWarning,0835.6,5.02,000.00,031.8,027.9,000.0,039.9,031.7,35.4,0000.0,0004.47,0009.07,0003.87
2023-08-01 16:30:00,SystemResetWarning,0835.6,4.98,000.00,032.0,028.1,000.0,039.8,031.9,33.8,0000.0,0004.50,0009.32,0003.89
2023-08-01 16:31:00,SystemResetWarning,0835.6,4.99,000.00,032.1,027.3,000.0,039.7,031.9,32.7,0000.0,0004.51,0009.30,0003.90
2023-08-01 16:32:00,SystemResetWarning,0835.6,5.00,000.00,032.1,026.0,000.0,039.6,031.6,33.0,0000.0,0004.49,0009.32,0003.90
2023-08-01 16:33:00,SystemResetWarning,0835.7,5.00,000.00,032.0,025.6,000.0,039.5,031.5,32.7,0000.0,0004.49,0009.37,0003.91
2023-08-01 16:34:00,SystemResetWarning,0835.7,5.01,000.00,031.9,025.8,000.0,039.5,031.3,33.1,0000.0,0004.47,0009.29,0003.91
2023-08-01 16:35:00,SystemResetWarning,0835.6,5.00,000.00,031.7,026.2,000.0,039.6,031.3,33.8,0000.0,0004.46,0009.12,0003.91
2023-08-01 16:36:00,SystemResetWarning,0835.7,5.00,000.00,031.7,026.6,000.0,039.6,031.4,33.5,0000.0,0004.46,0008.34,0003.92
2023-08-01 16:37:00,SystemResetWarning,0835.7,5.00,000.00,031.6,027.0,000.0,039.6,031.5,34.3,0000.0,0004.46,0008.98,0003.94
2023-08-01 16:38:00,SystemResetWarning,0835.6,5.00,000.00,031.6,027.3,000.0,039.6,031.5,34.0,0000.0,0004.46,0009.06,0003.95
2023-08-01 16:39:00,SystemResetWarning,0835.7,4.98,000.00,031.5,027.6,000.0,039.6,031.6,35.0,0000.0,0004.48,0009.13,0003.95
2023-08-01 16:40:00,SystemResetWarning,0835.8,5.00,000.00,031.6,027.9,000.0,039.6,031.7,34.4,0000.0,0004.48,0009.16,0003.95
2023-08-01 16:41:00,SystemResetWarning,0835.6,5.00,000.00,031.6,027.9,000.0,039.6,031.7,34.9,0000.0,0004.44,0008.61,0003.95
2023-08-01 16:42:00,SystemResetWarning,0835.6,4.99,000.00,031.7,026.7,000.0,039.5,031.7,35.6,0000.0,0004.43,0008.27,0003.95
2023-08-01 16:43:00,SystemResetWarning,0835.7,5.03,000.00,031.9,025.7,000.0,039.3,031.6,35.8,0000.0,0004.46,0008.27,0003.96
2023-08-01 16:44:00,SystemResetWarning,0835.7,4.98,000.00,032.0,025.6,000.0,039.3,031.6,34.7,0000.0,0004.47,0008.19,0003.97
2023-08-01 16:45:00,SystemResetWarning,0835.7,4.99,000.00,032.0,025.9,000.0,039.4,031.4,35.2,0000.0,0004.49,0008.30,0003.99
2023-08-01 16:46:00,SystemResetWarning,0835.6,5.03,000.00,032.1,026.3,000.0,039.4,031.5,35.7,0000.0,0004.51,0008.43,0004.01
2023-08-01 16:47:00,SystemResetWarning,0835.7,5.01,000.00,032.3,026.7,000.0,039.5,031.7,35.1,0000.0,0004.53,0008.44,0004.01
2023-08-01 16:48:00,SystemResetWarning,0835.6,4.99,000.00,032.5,027.1,000.0,039.6,031.8,34.4,0000.0,0004.51,0007.90,0004.01
2023-08-01 16:49:00,SystemResetWarning,0835.6,4.99,000.00,032.6,027.4,000.0,039.7,031.9,34.2,0000.0,0004.51,0007.86,0004.00
2023-08-01 16:50:00,SystemResetWarning,0835.6,5.01,000.00,032.7,027.7,000.0,039.8,031.9,34.2,0000.0,0004.48,0007.81,0003.99
2023-08-01 16:51:00,SystemResetWarning,0835.6,5.01,000.00,032.7,028.0,000.0,039.9,031.9,33.6,0000.0,0004.48,0007.76,0003.98
2023-08-01 16:52:00,SystemResetWarning,0835.6,5.00,000.00,032.8,027.7,000.0,039.9,032.0,33.7,0000.0,0004.48,0007.76,0003.97
2023-08-01 16:53:00,SystemResetWarning,0835.7,4.98,000.00,032.8,026.3,000.0,039.8,031.8,33.0,0000.0,0004.47,0007.75,0003.96
2023-08-01 16:54:00,SystemResetWarning,0835.5,5.01,000.00,032.7,025.6,000.0,039.8,031.6,33.1,0000.0,0004.46,0007.71,0003.97
2023-08-01 16:55:00,SystemResetWarning,0835.5,5.02,000.00,032.6,025.7,000.0,039.8,031.5,33.8,0000.0,0004.43,0007.64,0003.96
2023-08-01 16:56:00,SystemResetWarning,0835.5,4.99,000.00,032.4,026.1,000.0,039.9,031.4,34.3,0000.0,0004.44,0007.64,0003.97
2023-08-01 16:57:00,SystemResetWarning,0835.5,5.00,000.00,032.3,026.5,000.0,040.0,031.5,35.6,0000.0,0004.47,0007.52,0003.97
2023-08-01 16:58:00,SystemResetWarning,0835.5,5.00,000.00,032.4,026.9,000.0,040.0,031.7,34.0,0000.0,0004.49,0007.59,0003.99
2023-08-01 16:59:00,SystemResetWarning,0835.5,5.00,000.00,032.4,027.2,000.0,040.0,031.8,33.7,0000.0,0004.51,0007.64,0004.00
